EW1804 Weather Reports


time (UTC)temp
C
wind
direction
speed
KPH
gust
KPH
rain 1hr
cm
rain 24hr
cm
rain mn
cm
humidity
%
barometer
mb
20260505041502 8 220 11.3 20.9 0.00 0.05 0.00 79 1005.2
20260505041023 8 219 11.3 20.9 0.00 0.05 0.00 78 1005.2
20260505040502 8 217 9.7 17.7 0.00 0.05 0.00 78 1005.1
20260505040002 8 217 8.0 17.7 0.00 0.05 0.00 77 1005.2
20260505035502 8 219 8.0 11.3 0.00 0.05 0.00 77 1005.1
20260505035002 8 224 8.0 16.1 0.00 0.05 0.00 76 1005.0
20260505034523 8 227 9.7 16.1 0.00 0.05 0.00 75 1005.0
20260505034023 8 232 9.7 20.9 0.00 0.05 0.00 75 1005.0
20260505033502 9 238 11.3 20.9 0.00 0.05 0.00 74 1004.8
20260505033002 9 240 11.3 19.3 0.00 0.05 0.00 74 1004.7
20260505032502 9 242 9.7 19.3 0.00 0.05 0.00 74 1004.6
20260505032002 9 241 9.7 19.3 0.00 0.05 0.00 73 1004.5
20260505031502 9 240 12.9 22.5 0.00 0.05 0.00 73 1004.5
20260505031023 9 241 12.9 24.1 0.00 0.05 0.00 73 1004.5
20260505030502 9 241 12.9 24.1 0.00 0.05 0.00 73 1004.4
20260505030002 9 239 12.9 19.3 0.00 0.05 0.00 72 1004.4
20260505025502 9 237 9.7 19.3 0.00 0.05 0.05 72 1004.3
20260505025002 8 236 8.0 19.3 0.00 0.05 0.05 72 1004.2
20260505024502 8 233 9.7 17.7 0.00 0.05 0.05 72 1004.2
20260505024002 8 231 9.7 17.7 0.00 0.05 0.05 71 1004.2
20260505023502 8 231 9.7 20.9 0.00 0.05 0.05 71 1004.2
20260505023002 8 232 11.3 20.9 0.00 0.05 0.05 71 1004.0
20260505022502 8 235 11.3 20.9 0.00 0.05 0.05 70 1003.9
20260505022002 9 235 11.3 20.9 0.00 0.05 0.05 70 1003.8
20260505021503 9 231 12.9 27.4 0.00 0.05 0.05 70 1003.7
20260505021002 9 233 14.5 27.4 0.00 0.05 0.05 69 1003.7
20260505020502 9 233 16.1 30.6 0.00 0.05 0.05 69 1003.7
20260505020002 10 228 16.1 30.6 0.00 0.05 0.05 69 1003.6
20260505015502 10 227 16.1 27.4 0.00 0.05 0.05 69 1003.6
20260505015002 10 229 14.5 25.7 0.00 0.05 0.05 70 1003.7
20260505014523 10 230 14.5 22.5 0.00 0.05 0.05 69 1003.7
20260505014003 10 229 12.9 20.9 0.00 0.05 0.05 68 1003.6
20260505013502 10 233 12.9 30.6 0.00 0.05 0.05 68 1003.5
20260505013002 10 236 12.9 30.6 0.00 0.05 0.05 66 1003.5
20260505012502 10 240 17.7 33.8 0.00 0.05 0.05 65 1003.4
20260505012002 11 241 22.5 33.8 0.00 0.05 0.05 65 1003.6
20260505011502 11 243 22.5 37.0 0.00 0.08 0.05 65 1003.4
20260505011002 11 243 20.9 37.0 0.00 0.08 0.05 64 1003.4
20260505010502 11 239 20.9 37.0 0.00 0.08 0.05 63 1003.4
20260505010002 11 238 20.9 37.0 0.00 0.10 0.05 63 1003.5
20260505005502 11 242 20.9 38.6 0.00 0.10 0.05 63 1003.4
20260505005002 11 243 20.9 38.6 0.00 0.13 0.05 63 1003.4
20260505004502 11 244 20.9 35.4 0.00 0.15 0.05 62 1003.4
20260505004002 11 244 22.5 37.0 0.00 0.15 0.05 60 1003.4
20260505003502 11 246 24.1 41.8 0.00 0.15 0.05 60 1003.1
20260505003002 11 245 24.1 41.8 0.00 0.15 0.05 59 1003.1
20260505002502 11 241 22.5 40.2 0.00 0.18 0.05 57 1003.0
20260505002002 11 238 19.3 37.0 0.00 0.20 0.05 56 1003.2
20260505001502 11 235 16.1 37.0 0.00 0.20 0.05 57 1003.0
20260505001023 10 229 14.5 27.4 0.00 0.23 0.05 58 1003.0
20260505000523 10 226 14.5 27.4 0.00 0.23 0.05 59 1002.8
20260505000002 10 230 14.5 27.4 0.00 0.23 0.05 59 1002.6
20260504235502 10 231 12.9 24.1 0.00 0.25 0.05 60 1002.5
20260504235002 10 228 12.9 24.1 0.00 0.30 0.05 60 1002.3
20260504234502 10 222 12.9 24.1 0.00 0.43 0.05 60 1002.2
20260504234002 10 221 12.9 20.9 0.00 0.48 0.05 60 1002.2
20260504233502 10 226 11.3 20.9 0.00 0.56 0.05 60 1002.2
20260504233002 10 228 12.9 20.9 0.00 0.58 0.05 60 1002.2
20260504232502 10 228 12.9 24.1 0.00 0.64 0.05 60 1002.1
20260504232002 10 228 14.5 29.0 0.00 0.74 0.05 60 1002.2
20260504231502 10 226 14.5 29.0 0.00 0.79 0.05 59 1002.1
20260504231002 11 227 14.5 30.6 0.00 0.89 0.05 58 1001.9
20260504230523 11 227 12.9 30.6 0.00 0.97 0.05 57 1001.8
20260504230002 11 230 16.1 30.6 0.00 0.99 0.05 55 1001.7
20260504225502 11 234 19.3 32.2 0.00 1.04 0.05 55 1001.7
20260504225002 11 237 19.3 35.4 0.00 1.09 0.05 54 1001.8
20260504224502 11 239 19.3 35.4 0.00 1.09 0.05 53 1001.7
20260504224002 11 243 19.3 35.4 0.00 1.12 0.05 53 1001.7
20260504223523 11 244 22.5 41.8 0.00 1.14 0.05 53 1001.8
20260504223002 11 246 22.5 41.8 0.00 1.17 0.05 53 1001.6
20260504222502 11 248 20.9 38.6 0.00 1.19 0.05 54 1001.5
20260504222002 11 254 22.5 43.5 0.00 1.22 0.05 53 1001.3
20260504221502 11 254 22.5 49.9 0.00 1.24 0.05 52 1001.4
20260504221002 12 249 22.5 49.9 0.00 1.24 0.05 52 1001.4
20260504220502 12 253 24.1 51.5 0.00 1.27 0.05 52 1001.3
20260504220023 12 253 24.1 51.5 0.00 1.27 0.05 51 1001.4
20260504215502 12 250 24.1 48.3 0.00 1.30 0.05 52 1001.2
20260504215023 12 254 27.4 48.3 0.00 1.35 0.05 51 1001.2
20260504214502 12 249 30.6 49.9 0.00 1.37 0.05 51 1001.1
20260504214002 12 249 29.0 49.9 0.00 1.45 0.05 51 1001.0
20260504213502 12 252 27.4 56.3 0.00 1.55 0.05 50 1000.9
20260504213002 12 250 25.7 56.3 0.00 1.60 0.05 50 1000.9
20260504212502 12 249 27.4 56.3 0.00 1.63 0.05 51 1000.7
20260504212002 12 251 29.0 56.3 0.00 1.65 0.05 51 1000.8
20260504211502 12 254 29.0 48.3 0.00 1.70 0.05 51 1000.6
20260504211002 12 254 29.0 53.1 0.00 1.73 0.05 50 1000.5
20260504210502 12 256 27.4 53.1 0.00 1.73 0.05 51 1000.5
20260504210002 12 254 32.2 59.5 0.00 1.75 0.05 52 1000.3
20260504205502 12 254 33.8 59.5 0.00 1.75 0.05 52 1000.2
20260504205002 12 255 33.8 57.9 0.00 1.75 0.05 53 1000.1
20260504204502 12 256 32.2 57.9 0.00 1.75 0.05 54 1000.1
20260504204002 12 258 32.2 56.3 0.00 1.75 0.05 55 1000.0
20260504203502 12 259 32.2 56.3 0.00 1.75 0.05 55 1000.0
20260504203002 12 259 29.0 51.5 0.00 1.75 0.05 56 999.8
20260504202502 12 261 32.2 51.5 0.00 1.75 0.05 58 999.7
20260504202002 12 266 32.2 53.1 0.00 1.78 0.05 58 999.6
20260504201502 12 262 29.0 54.7 0.00 1.78 0.05 59 999.4
20260504201002 12 256 29.0 54.7 0.00 1.80 0.05 61 999.5
20260504200502 12 256 29.0 54.7 0.00 1.80 0.05 61 999.6
20260504200002 12 256 32.2 59.5 0.00 1.80 0.05 62 999.2
20260504195502 12 256 35.4 59.5 0.00 1.80 0.05 63 999.1
20260504195002 12 255 33.8 57.9 0.00 1.80 0.05 64 999.2
20260504194502 11 258 29.0 49.9 0.00 1.80 0.05 66 998.9
20260504194002 11 261 29.0 48.3 0.00 1.80 0.05 67 998.9
20260504193502 11 258 29.0 54.7 0.00 1.80 0.05 69 998.8
20260504193002 11 258 29.0 54.7 0.00 1.80 0.05 70 998.8
20260504192502 10 256 33.8 59.5 0.00 1.80 0.05 70 998.7
20260504192002 10 255 30.6 59.5 0.00 1.80 0.05 70 998.6
20260504191502 11 257 25.7 49.9 0.00 1.80 0.05 71 998.6
20260504191002 10 253 30.6 57.9 0.00 1.80 0.05 73 998.5
20260504190502 10 254 32.2 57.9 0.00 1.80 0.05 72 998.4
20260504190002 10 255 27.4 46.7 0.00 1.80 0.05 73 998.2
20260504185502 10 254 29.0 48.3 0.00 1.80 0.05 75 998.1
20260504185023 10 254 29.0 53.1 0.00 1.83 0.05 75 998.1
20260504184502 10 252 29.0 53.1 0.00 1.83 0.05 75 998.0
20260504184023 10 250 29.0 51.5 0.00 1.83 0.05 75 998.0
20260504183502 9 253 27.4 48.3 0.00 1.85 0.05 77 997.9
20260504183023 9 252 29.0 53.1 0.00 1.85 0.05 78 997.9
20260504182502 8 250 29.0 53.1 0.00 1.85 0.05 79 997.7
20260504182002 8 251 30.6 54.7 0.00 1.85 0.05 79 997.6
20260504181503 8 252 30.6 54.7 0.00 1.85 0.05 80 997.6
20260504181002 8 250 29.0 48.3 0.00 1.85 0.05 80 997.6
20260504180502 8 253 27.4 49.9 0.00 1.85 0.05 80 997.6
20260504180002 8 251 29.0 49.9 0.00 1.85 0.05 80 997.4
20260504175502 8 251 27.4 46.7 0.00 1.85 0.05 80 997.4
20260504175002 8 256 25.7 53.1 0.00 1.85 0.05 80 997.2
20260504174502 8 256 25.7 53.1 0.00 1.85 0.05 80 997.2
20260504174002 8 257 29.0 53.1 0.00 1.85 0.05 82 997.1
20260504173502 7 256 32.2 53.1 0.00 1.85 0.05 82 997.0
20260504173002 7 254 30.6 59.5 0.00 1.85 0.05 82 996.9
20260504172502 7 256 29.0 59.5 0.00 1.85 0.05 82 996.7
20260504172002 7 254 29.0 64.4 0.00 1.85 0.05 83 996.6
20260504171502 7 252 32.2 64.4 0.00 1.85 0.05 83 996.2
20260504171002 7 255 32.2 56.3 0.00 1.85 0.05 83 996.2
20260504170502 7 255 32.2 56.3 0.00 1.85 0.05 82 996.2
20260504151002 6 256 32.2 57.9 0.00 1.85 0.05 84 993.3
20260504150502 6 256 33.8 57.9 0.00 1.85 0.05 83 993.2
20260504141002 6 268 37.0 64.4 0.00 1.85 0.05 81 990.9
20260504140502 6 264 38.6 67.6 0.00 1.85 0.05 80 990.9
20260504130523 5 258 35.4 61.2 0.00 1.85 0.05 87 988.1
20260504110502 4 251 38.6 69.2 0.00 1.85 0.05 91 982.7
20260504100502 3 243 29.0 64.4 0.00 1.85 0.05 95 979.8
20260504082002 3 222 24.1 43.5 0.00 1.85 0.05 95 977.2
20260504081523 3 222 25.7 43.5 0.03 1.85 0.05 94 977.1
20260504081002 3 220 25.7 45.1 0.03 1.85 0.05 94 977.1
20260504080502 3 221 24.1 45.1 0.03 1.85 0.05 94 977.1
20260504050523 3 167 33.8 56.3 0.00 1.83 0.00 96 975.6
20260504050002 3 167 32.2 56.3 0.00 1.83 0.00 96 975.8